Theta_e
319 318 317 316 316 317 319 319 319 319 318 318 317 317 317 317 317 317 316 313 310 309 308 307 306 307 306 306 306 306 306 306 307 308 310 310 308 308 309 311 311 309 312 313 310 312 312 311 311 310 315 316 315 316 313 317 323 329 337 331 322 323 323 321 320 318 322 322 317 314 314 317 316 313 311 311 316 317 316 323 322 323 325 323 323 320 325 335
318 317 316 315 316 318 319 318 318 318 318 317 317 317 317 317 317 317 316 312 309 309 308 307 306 306 306 306 306 306 306 307 309 310 311 310 309 309 309 310 312 312 312 312 310 312 312 311 310 312 319 318 313 316 316 314 321 335 334 325 330 334 323 320 321 316 317 317 316 315 313 315 316 315 312 313 318 317 317 319 319 326 327 326 324 323 329 334
317 316 316 316 318 318 318 318 318 318 317 317 317 317 317 316 317 316 314 310 308 308 308 307 306 306 306 306 305 306 308 308 309 310 310 309 309 309 310 311 314 314 312 311 311 311 312 312 310 313 319 318 315 317 319 317 319 328 329 324 335 337 322 316 319 318 316 315 317 315 312 313 314 313 312 315 318 315 319 319 318 325 330 336 328 324 331 332
317 317 316 316 318 318 317 317 317 317 317 317 317 317 316 316 316 315 312 309 308 307 307 307 306 306 306 305 306 308 309 308 310 310 309 310 309 308 311 314 316 316 313 310 311 311 312 311 309 315 318 317 317 317 318 318 316 319 324 327 327 324 319 316 317 319 317 314 317 316 313 313 312 312 313 317 318 316 319 319 320 323 335 343 328 325 331 330
317 317 316 316 317 317 315 315 316 316 316 316 316 316 316 315 314 314 312 309 308 307 307 308 307 306 306 305 307 309 309 308 310 311 310 310 309 308 311 315 317 315 312 311 312 312 311 309 310 317 318 314 316 317 315 314 314 315 317 320 319 316 315 316 316 316 315 313 316 316 313 313 311 311 315 317 318 320 318 317 320 319 333 343 330 326 330 328
317 316 315 316 316 315 314 315 316 315 315 316 316 315 315 315 314 314 313 310 308 307 306 307 306 305 306 305 308 309 309 309 311 315 314 311 310 310 313 314 314 312 311 313 312 311 312 310 311 316 317 314 315 316 314 310 312 318 315 313 315 315 315 315 314 313 312 315 316 316 313 312 313 313 314 316 318 319 316 315 314 314 325 332 328 327 330 329
317 316 315 316 316 315 313 315 315 314 315 316 315 315 315 314 314 314 313 310 308 307 306 306 306 305 305 306 309 310 310 311 312 316 317 314 313 313 314 312 311 311 312 312 311 312 314 312 313 316 317 315 313 313 313 311 314 322 318 313 314 313 314 313 313 311 311 316 316 313 312 313 315 314 311 313 318 315 310 307 306 313 321 324 326 328 329 329
317 316 316 315 315 315 313 314 314 315 316 315 315 314 314 314 314 314 312 311 308 307 305 305 305 304 306 308 311 311 311 313 313 316 316 314 315 313 313 311 311 312 312 312 311 313 313 312 312 313 316 313 312 313 311 312 315 320 318 314 313 312 314 313 313 314 312 314 312 312 314 315 314 311 311 316 319 314 310 310 313 319 324 326 328 330 328 328
317 316 315 315 315 314 312 313 314 316 315 314 314 314 314 314 314 314 312 310 309 308 305 305 305 305 307 309 311 311 311 313 313 315 315 314 313 312 312 311 311 311 312 312 311 311 311 313 313 312 314 312 311 314 313 314 316 317 317 316 314 314 315 313 313 316 315 313 312 314 316 314 311 310 314 319 318 313 315 329 332 329 332 330 329 328 326 326
317 316 316 316 315 313 313 314 315 315 314 314 314 314 314 314 314 314 313 310 309 308 305 305 306 306 309 309 308 308 311 314 314 314 313 312 312 311 312 311 311 311 311 311 310 310 311 313 312 311 313 312 312 313 312 312 313 316 318 317 315 314 315 315 314 315 315 314 313 316 315 314 311 311 316 317 312 311 322 340 335 333 338 331 328 327 324 324
317 316 316 315 314 314 313 313 314 314 314 314 314 314 314 314 314 314 313 310 308 308 306 306 307 308 310 309 306 307 312 315 315 314 312 311 312 311 312 311 311 311 311 311 309 310 312 310 308 310 312 312 313 313 312 311 312 314 317 317 315 314 313 314 315 315 316 313 313 316 315 314 311 313 319 315 310 311 323 342 336 335 336 328 328 327 323 323
317 316 316 315 315 314 313 313 313 314 314 314 315 313 314 314 314 314 313 310 308 308 307 307 308 309 310 309 307 308 313 316 315 313 311 311 312 311 312 312 312 312 312 312 310 311 312 310 309 312 312 311 314 314 313 313 313 314 316 316 315 316 314 313 314 315 315 313 313 316 313 315 315 316 321 314 310 313 319 333 336 333 329 326 328 325 324 323
317 316 316 315 315 314 313 312 312 313 313 315 315 313 313 314 314 314 312 309 308 307 308 308 308 310 310 309 309 309 313 317 315 313 311 311 312 312 313 313 313 313 313 312 312 312 312 311 312 313 312 315 315 311 312 314 314 314 315 318 316 314 313 312 314 315 313 313 313 313 312 319 320 316 315 310 309 313 317 324 327 327 324 323 325 325 325 322
317 316 316 315 314 314 313 312 313 313 313 314 314 313 313 313 314 313 311 309 308 308 309 309 309 310 308 309 311 310 314 315 315 313 311 312 312 313 313 314 314 314 313 313 312 313 313 311 311 312 311 315 313 310 316 318 316 315 311 318 318 313 314 314 314 315 312 311 311 309 312 318 318 313 310 309 310 312 316 321 321 322 320 319 320 322 324 321
317 316 315 315 314 313 313 312 313 313 313 313 314 313 313 313 313 312 310 309 309 309 309 309 311 310 306 309 310 311 314 314 314 312 311 313 312 313 313 313 313 313 313 313 313 313 312 311 314 316 312 311 312 313 320 320 322 320 311 317 317 311 315 317 315 316 314 312 311 309 312 317 316 313 310 309 312 313 315 320 319 319 318 316 317 316 319 318
317 316 315 314 314 313 313 312 313 313 313 312 312 312 312 312 312 311 309 308 309 310 309 311 313 308 306 309 310 312 314 314 314 311 311 313 313 313 312 312 312 312 313 312 313 312 311 314 314 313 313 313 314 318 321 320 324 322 315 320 320 313 315 316 314 315 315 314 313 311 313 318 317 316 313 309 313 314 315 320 319 318 316 314 314 312 313 313
317 316 315 314 314 313 313 312 313 313 312 312 312 312 311 311 310 310 309 309 311 311 310 313 312 307 305 308 311 314 313 313 313 311 312 313 313 313 311 312 312 311 312 311 312 312 311 315 312 311 316 315 315 319 318 316 318 319 319 320 319 318 316 315 315 313 313 314 314 313 313 318 318 317 316 312 312 313 316 321 320 320 318 316 314 312 311 311
317 316 315 314 314 313 312 312 312 312 312 311 310 311 311 311 310 310 312 312 312 310 310 311 309 307 307 308 312 314 312 312 313 312 313 313 312 312 312 313 310 310 313 313 312 312 313 315 315 317 319 313 313 317 316 317 318 317 318 316 315 316 314 316 318 313 312 313 315 316 315 317 319 317 316 312 310 313 317 319 318 320 322 319 316 314 312 311
317 316 315 315 314 313 312 311 311 311 311 310 311 311 311 311 311 312 313 311 309 307 309 310 308 310 310 309 313 313 311 312 313 313 313 313 312 312 312 311 312 314 314 314 312 313 318 318 316 318 316 313 314 314 318 324 322 318 319 320 320 320 316 318 319 313 312 315 316 318 317 318 319 318 317 313 309 312 315 315 315 317 319 317 316 315 313 313
317 316 315 315 313 312 312 311 311 311 310 311 311 310 310 311 312 313 313 312 310 307 310 311 309 311 312 312 314 312 312 312 312 313 313 313 312 313 312 311 315 316 314 318 314 312 318 319 316 317 316 315 315 313 318 321 318 317 319 322 322 320 318 316 315 313 312 315 317 319 319 320 318 317 316 313 309 311 314 315 317 317 316 315 315 314 312 312
317 316 315 314 313 312 312 312 311 311 311 311 311 311 311 311 311 313 313 313 309 305 309 310 309 312 311 312 312 310 312 312 311 313 313 312 312 313 313 313 316 314 314 319 316 311 315 318 317 318 316 314 314 314 317 317 316 317 318 319 318 317 319 315 313 314 312 313 317 317 318 319 318 317 316 313 312 314 317 318 319 319 317 314 313 314 312 310
316 316 315 314 313 312 312 312 311 311 311 311 310 312 314 310 308 310 310 311 307 304 309 309 310 315 311 310 311 310 313 314 313 313 313 312 312 313 314 315 316 315 314 315 316 313 314 318 318 315 313 312 313 315 320 320 320 320 318 317 317 318 319 314 313 314 312 313 318 319 319 318 317 317 315 314 314 314 314 315 316 316 315 313 312 313 311 310
317 315 314 314 312 312 312 311 311 310 311 311 309 310 314 310 308 309 308 310 308 306 310 310 314 319 314 311 312 311 313 314 313 314 312 312 313 313 314 315 315 316 314 314 315 316 316 318 315 312 312 312 313 315 319 319 319 321 319 318 318 317 318 317 314 314 312 312 316 319 317 316 316 316 316 314 310 311 312 313 313 312 312 312 311 311 311 311
316 315 314 313 312 312 311 310 311 310 310 311 309 310 312 311 309 310 309 310 309 308 309 309 314 320 316 312 312 312 313 312 313 312 311 313 314 313 313 314 315 315 314 315 314 315 316 312 309 310 312 315 314 313 316 318 316 317 324 329 324 319 320 317 314 316 315 311 313 315 313 321 327 323 322 318 310 311 313 312 314 313 310 309 311 311 310 311
316 315 314 313 311 311 311 311 311 310 310 310 310 311 313 312 309 309 310 310 308 308 307 308 312 317 314 311 312 313 313 312 313 312 310 312 313 312 312 312 314 314 314 314 313 314 313 307 306 309 310 314 316 314 318 321 316 315 323 331 328 324 323 319 317 319 319 314 311 310 312 330 338 330 327 323 318 318 315 312 317 316 310 308 312 313 311 311
315 314 313 312 311 311 310 311 310 309 310 309 310 312 313 312 309 309 311 311 310 309 308 309 310 311 312 312 313 314 313 312 311 310 311 311 311 311 311 310 311 314 314 312 313 314 311 308 311 313 312 314 315 314 316 319 319 314 316 320 322 325 325 322 319 317 318 314 308 309 314 322 327 325 326 323 321 322 317 316 321 318 312 313 314 313 311 311
315 313 313 312 311 311 310 310 310 309 311 311 310 312 312 312 310 309 312 312 311 310 309 308 307 309 312 311 313 313 313 314 310 310 312 310 309 309 312 312 311 313 313 313 315 313 310 312 314 315 317 317 315 315 314 316 319 314 314 317 322 325 324 325 323 320 320 313 312 319 319 314 317 318 320 319 319 322 320 320 322 318 317 320 317 312 310 308
314 313 312 311 310 311 310 309 309 309 311 311 310 312 313 312 309 309 313 311 310 310 308 307 307 310 312 309 312 313 312 314 313 311 309 308 309 310 314 314 314 316 313 312 316 313 312 316 316 317 320 317 316 317 314 318 322 317 312 316 320 322 326 331 331 327 319 310 317 326 314 310 320 322 320 316 314 318 320 319 318 317 321 322 318 314 311 307
314 313 312 311 311 310 309 309 309 309 309 309 311 313 312 310 307 309 312 309 308 310 307 307 308 311 312 310 311 313 312 314 315 313 309 308 308 309 312 313 315 317 312 314 320 316 313 314 314 317 318 315 316 316 314 321 323 315 309 314 317 320 324 327 328 326 317 313 323 325 312 310 318 325 326 315 311 319 320 319 318 318 321 320 316 314 314 315
314 312 311 310 311 310 310 309 308 308 309 310 313 312 310 310 309 308 308 308 310 310 306 307 309 312 313 311 311 313 314 314 314 313 312 312 311 309 309 309 314 320 319 321 324 317 312 311 311 314 315 313 314 313 314 318 317 311 314 319 316 322 326 325 326 322 315 320 327 320 314 312 310 323 330 315 313 319 317 321 323 321 322 319 317 316 318 326
313 311 310 311 311 310 310 310 308 308 309 312 313 310 309 313 313 310 307 310 314 310 307 308 309 312 313 311 312 313 314 315 312 313 314 312 312 312 310 310 315 321 321 322 321 317 314 313 313 314 313 313 316 316 311 310 312 314 323 323 316 322 326 326 328 319 313 325 323 314 312 312 309 321 328 319 318 316 312 317 321 321 322 319 319 319 321 332
312 311 311 311 311 310 310 311 308 308 311 313 311 309 309 313 312 310 308 309 312 311 309 310 309 312 313 311 313 314 316 316 313 313 316 315 313 312 312 314 319 318 315 318 319 318 318 317 314 313 312 313 319 322 313 311 317 317 320 321 319 322 320 324 331 320 317 323 314 310 313 312 312 317 317 318 319 314 311 314 316 318 319 319 321 322 325 333
311 311 311 311 310 310 310 310 308 310 313 311 309 310 314 314 310 310 309 308 310 310 311 312 310 312 313 312 313 314 315 315 313 313 315 315 314 312 313 316 320 319 317 319 321 318 319 321 317 314 315 313 316 320 316 316 318 314 315 319 321 322 315 318 324 315 315 320 310 308 313 314 316 315 312 315 312 311 312 312 314 315 316 319 319 321 327 332
310 311 311 310 310 310 311 311 310 312 312 309 307 311 315 313 310 311 310 308 311 313 313 314 312 312 312 313 313 314 315 313 312 313 313 314 314 313 314 312 314 322 322 319 319 318 319 321 319 316 315 313 314 317 320 321 317 313 315 316 317 325 324 320 322 319 321 323 313 307 313 321 320 310 311 315 311 312 313 311 311 313 315 316 313 317 329 334
311 311 310 310 310 310 312 312 311 312 311 308 307 310 311 310 311 311 309 310 315 316 313 312 312 312 313 314 312 312 316 315 312 313 313 314 313 313 314 310 312 322 322 316 316 317 316 317 317 314 312 313 315 315 316 319 316 313 312 312 313 322 325 317 314 318 318 316 315 312 316 324 318 310 311 311 310 313 313 311 314 318 318 315 315 323 332 334
311 310 310 310 310 311 312 313 313 312 309 307 308 310 309 310 315 314 309 313 315 312 311 312 312 314 312 313 313 311 314 316 314 313 314 313 313 313 313 312 313 316 316 316 318 317 315 314 314 314 313 313 314 312 313 317 316 313 311 314 316 317 322 317 308 309 310 310 315 315 316 319 313 312 317 314 313 314 313 315 318 322 323 319 320 326 331 334
310 310 311 311 310 311 311 313 313 311 309 308 308 311 309 308 313 315 312 313 313 310 312 313 312 313 313 313 315 313 313 316 313 313 314 313 313 314 313 313 313 312 313 317 318 318 319 316 314 316 315 311 310 312 314 314 314 316 317 317 313 310 317 318 312 316 315 314 318 315 314 317 313 314 321 318 314 314 316 319 318 320 323 321 321 325 330 332
311 311 311 311 311 311 311 313 313 311 309 308 309 313 314 309 310 316 315 310 310 312 314 314 312 313 313 313 314 313 313 315 313 314 315 312 314 314 313 313 312 312 313 313 313 316 321 319 313 313 316 314 312 315 315 312 310 316 319 314 313 316 318 315 313 319 317 313 321 321 313 311 311 317 322 316 315 321 321 319 320 319 317 320 324 325 325 323
312 312 312 312 310 310 312 312 311 310 310 310 310 313 315 311 312 318 317 311 312 315 313 315 315 312 312 312 313 312 312 314 313 314 314 313 314 313 312 313 313 311 310 312 313 313 318 321 314 311 313 314 315 316 316 316 311 312 311 308 314 323 322 316 313 317 316 312 319 323 319 317 316 318 320 313 316 326 323 319 322 319 317 322 325 324 322 319
312 313 314 312 310 311 312 311 310 311 311 310 311 311 311 312 313 316 316 314 315 314 313 317 316 312 313 313 311 312 313 314 313 313 314 312 311 311 310 312 313 311 310 312 316 314 314 316 315 313 312 314 318 318 317 318 314 313 313 311 314 316 315 315 314 313 318 319 319 319 319 326 326 317 317 316 315 321 321 319 320 319 321 326 323 319 318 319
312 315 315 312 311 312 312 312 312 312 311 310 312 313 311 313 315 316 316 316 315 314 315 318 316 314 316 314 312 312 313 314 313 312 314 312 310 311 311 311 312 311 310 311 315 316 314 313 317 317 316 317 319 316 313 316 314 313 314 313 315 315 314 316 313 312 314 315 319 318 313 323 330 317 315 317 313 314 315 313 318 323 323 324 320 317 317 321
313 316 314 312 313 313 313 313 311 311 313 312 311 312 312 316 317 316 316 317 317 317 318 318 316 316 317 312 311 314 314 315 313 313 315 313 311 313 311 309 311 310 310 311 313 316 317 319 323 321 319 318 315 310 308 312 313 313 314 314 315 315 315 318 318 316 312 308 313 315 312 322 329 315 311 314 312 313 312 312 320 326 321 320 321 320 321 325
313 314 312 312 313 313 313 313 312 312 313 310 310 310 312 316 317 314 316 318 318 318 318 319 316 313 313 312 312 313 313 313 313 313 315 313 311 314 314 310 310 310 311 312 312 313 315 319 320 318 320 320 315 311 310 311 312 313 315 316 316 315 317 323 323 319 317 313 313 314 312 321 331 321 315 317 317 319 318 316 319 323 322 323 328 329 329 329
311 311 311 311 311 312 313 313 312 312 310 310 312 313 310 313 314 314 320 322 319 319 322 321 315 312 316 317 313 313 312 313 313 312 314 314 310 313 316 312 311 312 311 312 312 312 312 316 317 316 319 320 317 316 316 315 314 316 318 316 316 318 318 317 316 313 314 318 319 318 315 316 325 325 320 318 319 323 324 322 320 319 320 324 331 335 331 326
308 309 310 309 309 311 312 313 313 312 310 311 314 314 312 312 311 312 318 320 316 318 322 319 314 316 322 317 310 312 312 313 315 313 313 314 312 313 314 313 313 311 311 314 314 311 313 317 316 314 315 315 316 317 317 318 316 316 318 315 313 317 316 314 316 315 314 317 317 317 315 311 315 320 316 313 317 320 320 321 319 318 322 327 332 337 330 321
307 308 309 309 310 310 309 310 312 312 311 311 313 313 313 314 311 309 313 315 313 315 318 317 315 319 321 314 311 313 312 312 315 314 312 314 315 314 311 312 312 311 315 320 314 314 320 318 313 312 313 312 312 315 317 320 319 316 318 316 314 314 314 316 321 318 315 316 314 314 314 312 314 317 315 316 322 325 321 318 316 316 320 325 326 325 321 316
308 308 308 308 310 310 308 308 310 311 311 311 311 311 312 315 313 311 311 312 312 314 316 316 316 319 319 314 313 314 312 311 313 313 313 313 315 314 310 310 310 311 317 317 312 317 322 316 312 313 313 311 312 318 320 320 319 317 317 317 315 314 314 316 318 315 314 316 314 312 313 312 313 317 318 321 326 328 326 322 319 316 316 319 319 317 315 316
307 308 307 307 309 309 308 308 309 310 310 311 312 311 312 314 314 314 313 311 311 313 315 316 317 320 321 317 314 315 314 311 312 314 314 314 316 316 313 311 310 312 315 311 310 316 318 314 314 314 312 312 314 320 322 318 317 317 317 316 315 314 314 315 314 313 314 315 312 313 316 314 311 314 318 321 323 324 323 320 318 316 316 319 319 318 317 317
305 306 305 306 308 308 307 307 307 309 310 311 312 311 311 312 313 314 314 312 314 314 314 318 320 321 321 318 316 318 317 313 313 315 315 315 317 318 318 316 313 312 314 311 310 313 314 316 316 312 310 313 313 316 319 318 317 317 316 315 314 313 314 313 313 313 313 313 312 314 317 315 311 313 316 317 319 319 316 314 313 313 316 319 318 317 316 315
304 305 305 306 307 306 307 306 306 308 309 310 312 311 311 312 312 313 313 313 315 315 313 316 319 318 319 319 319 320 318 317 317 317 316 315 316 318 319 320 318 314 312 312 310 308 311 318 317 312 311 313 313 314 316 316 316 316 315 314 313 313 313 312 313 313 312 313 312 312 316 315 311 313 317 315 313 311 310 311 313 313 314 316 315 314 314 313
300 300 302 306 307 305 306 306 306 308 308 309 311 310 310 312 311 312 313 312 313 315 313 315 318 317 315 316 320 320 317 318 319 319 318 317 317 318 317 317 320 317 312 312 313 310 311 316 317 314 312 314 314 314 314 312 312 312 314 315 313 313 313 312 313 313 313 313 313 313 314 313 311 314 316 314 311 310 311 313 313 312 312 313 313 313 313 314
299 299 301 306 308 306 307 307 306 308 309 308 309 309 310 311 311 312 313 312 313 314 313 314 318 319 316 317 320 318 315 316 316 315 314 315 317 317 315 315 318 317 314 313 315 316 315 316 319 317 315 316 314 312 313 312 312 312 313 315 314 312 312 312 312 312 313 314 314 314 313 311 312 316 315 313 312 313 313 312 312 312 311 311 311 312 312 312
Wind_Speed
24 23 23 23 23 23 22 19 18 17 17 17 16 15 14 13 13 12 12 14 16 16 16 17 16 15 14 13 11 10 8 9 10 9 9 12 14 14 13 12 9 11 10 7 6 7 3 1 2 2 3 3 3 1 2 3 3 4 3 4 2 3 4 6 8 7 5 4 5 5 6 9 5 3 2 1 5 3 2 2 2 2 2 3 5 2 11 23
25 24 22 22 23 22 20 18 18 17 16 16 15 15 14 13 12 11 11 14 16 16 16 16 16 15 14 13 10 8 7 8 8 9 15 17 14 12 13 13 10 9 10 8 9 8 5 1 3 4 4 2 2 2 2 2 3 4 3 3 3 6 5 6 8 7 3 2 6 5 4 5 6 5 3 2 2 3 2 3 4 4 4 2 4 6 19 24
25 25 22 23 23 21 19 18 17 16 16 15 14 14 13 12 11 11 12 14 15 15 15 15 15 14 13 12 9 7 6 5 4 9 19 19 15 14 11 12 11 9 9 7 8 8 6 5 7 6 4 2 1 2 2 2 1 2 4 3 5 6 4 4 6 7 3 3 7 5 3 2 3 3 2 4 2 0 4 5 1 4 8 2 1 11 21 22
25 25 24 23 22 21 20 18 17 17 16 14 14 13 12 11 10 10 12 14 15 15 14 14 15 14 13 11 8 8 5 2 4 9 16 17 17 16 12 12 11 10 9 7 7 6 5 7 7 4 4 2 3 3 2 1 0 2 4 4 5 3 2 3 6 6 4 4 7 5 4 1 3 2 2 7 5 3 7 8 8 9 8 5 3 11 18 20
26 26 26 24 22 22 21 20 18 17 16 14 13 12 11 12 11 10 12 13 14 15 14 14 15 14 12 11 10 10 5 2 4 8 12 15 16 17 15 11 10 11 10 8 8 7 6 6 5 5 4 2 2 3 1 2 1 2 1 3 4 2 1 0 3 3 3 4 6 7 6 4 2 2 3 9 7 6 7 7 10 9 8 9 9 13 16 16
27 27 28 25 23 23 22 20 18 17 17 14 13 12 12 12 10 10 11 13 14 15 14 14 15 14 12 11 10 9 5 1 3 3 10 13 15 17 15 11 11 11 11 10 9 8 5 4 4 3 3 2 2 2 2 2 2 2 1 0 2 3 1 2 2 1 4 6 7 7 5 3 4 1 2 7 8 7 4 5 6 7 8 10 12 15 14 14
29 28 28 26 23 23 22 20 18 19 17 15 14 13 13 11 10 10 11 12 14 14 14 14 14 14 13 11 9 4 3 4 3 1 8 12 17 17 14 12 11 12 12 12 9 6 4 4 3 4 4 3 3 2 1 1 4 4 2 1 1 2 1 2 2 1 3 6 6 5 4 3 5 3 1 5 10 6 2 4 2 8 12 12 12 13 14 16
30 29 28 26 23 21 21 21 20 19 17 16 15 14 13 11 11 10 10 12 13 14 14 14 14 14 14 11 7 1 3 5 2 2 7 12 17 15 13 12 12 12 13 12 10 8 5 5 5 4 4 1 4 3 1 2 5 3 3 1 2 1 2 4 3 4 4 3 2 5 5 2 4 4 2 7 11 5 2 1 3 8 10 10 11 12 12 14
30 28 27 26 24 21 20 20 20 18 17 16 15 14 12 11 11 9 10 12 12 14 14 15 15 15 15 11 6 2 5 5 2 4 8 12 14 14 13 12 13 13 11 10 10 10 6 5 5 4 4 2 4 4 1 2 1 2 4 3 3 2 5 4 4 5 3 2 2 6 3 4 2 1 3 8 8 3 1 5 5 7 8 9 10 11 12 11
30 29 27 26 24 21 20 21 20 18 17 16 15 13 12 10 10 9 9 11 12 13 15 16 16 16 16 8 5 3 5 4 5 6 8 11 12 13 13 12 14 14 11 8 8 11 6 6 7 5 5 3 3 3 1 3 2 3 6 5 5 2 4 3 4 5 3 2 2 6 3 3 2 2 4 5 4 1 4 6 5 7 8 9 8 10 12 13
30 29 27 26 24 21 21 22 20 18 17 16 15 14 12 11 10 8 8 11 12 13 15 16 16 18 15 7 5 5 3 4 7 8 10 10 10 12 11 11 13 12 11 7 7 10 6 8 10 5 2 2 4 2 1 2 4 4 7 6 6 4 3 5 4 4 3 2 2 5 4 4 2 1 6 5 6 1 6 6 5 7 7 8 8 8 9 12
30 29 27 26 25 22 22 23 22 19 17 17 16 14 13 11 10 7 8 11 12 13 15 16 16 18 12 4 4 6 3 4 7 9 10 9 10 10 8 10 10 9 10 6 7 8 5 10 12 6 1 4 5 2 2 3 5 3 4 5 6 7 5 4 2 3 2 2 3 2 1 5 3 6 9 4 5 1 6 5 5 7 6 6 7 6 7 11
30 28 26 26 25 23 23 24 22 20 18 17 15 14 12 11 9 7 9 11 12 13 14 15 16 16 9 2 5 9 5 4 6 9 10 9 9 9 8 9 8 7 7 5 8 8 7 11 10 6 3 5 3 2 4 4 3 2 3 5 2 6 4 3 2 4 1 1 5 1 2 7 8 10 8 4 4 3 4 5 5 6 5 5 6 5 7 9
30 27 25 26 25 24 24 23 21 20 19 17 15 14 12 10 8 7 9 11 13 13 13 15 16 13 5 2 5 8 8 4 5 8 9 9 9 9 8 8 7 6 5 4 9 8 7 10 9 7 3 4 3 2 4 5 4 2 2 2 2 2 4 5 3 1 3 0 5 4 3 7 8 8 6 5 2 4 5 7 6 6 5 5 5 6 7 9
29 27 25 25 25 24 23 22 21 19 18 17 16 14 11 8 7 8 10 11 12 13 13 14 15 9 2 3 3 5 8 5 5 8 9 10 10 8 7 7 7 6 5 4 8 8 7 10 9 6 1 2 4 6 4 4 4 3 2 1 2 3 4 7 3 1 3 1 5 6 3 7 7 8 6 6 2 5 7 7 6 6 6 6 5 6 7 8
29 26 26 25 24 23 22 21 19 19 19 17 15 13 10 9 8 9 11 11 11 12 12 11 12 8 3 2 1 2 6 5 6 8 8 10 9 7 9 10 8 7 7 7 10 9 7 7 5 2 3 3 4 7 4 4 3 4 2 3 1 3 2 4 1 2 1 0 3 2 2 4 4 5 7 5 4 4 5 7 7 6 7 6 6 6 7 7
29 27 26 25 24 23 22 21 20 20 21 17 13 12 10 9 9 9 11 13 12 11 10 9 9 5 1 1 1 2 4 5 7 9 8 8 7 10 12 8 6 8 9 8 7 5 5 5 1 0 3 3 3 6 5 1 2 2 3 2 2 3 3 2 2 3 4 2 1 2 2 6 6 6 8 5 2 2 3 7 7 6 6 6 6 6 7 8
29 28 27 26 24 23 21 21 21 19 19 17 12 11 11 11 10 10 13 16 14 10 6 5 6 3 2 3 3 3 3 6 9 10 9 7 8 11 10 6 6 9 8 5 3 2 3 4 2 2 3 3 2 5 5 4 5 5 2 2 2 2 3 3 3 2 3 2 2 1 3 9 11 10 9 5 2 2 6 7 6 7 6 6 6 6 7 8
30 29 28 26 24 23 21 21 19 17 17 15 14 16 15 12 10 8 10 11 8 5 3 4 5 3 4 4 2 3 5 9 10 8 8 8 8 9 8 7 7 7 6 2 1 1 2 3 4 3 3 3 5 6 7 7 8 9 5 4 5 3 4 5 4 4 0 3 3 4 5 8 10 11 10 6 3 3 7 6 6 7 7 7 6 7 8 8
31 30 28 26 24 23 21 20 18 18 18 19 21 18 11 8 6 3 3 2 3 3 2 5 6 3 1 1 3 8 9 8 5 4 8 9 10 9 6 4 6 6 4 4 3 1 3 4 3 5 7 7 8 6 6 5 6 7 5 4 4 4 2 3 3 5 0 3 3 3 4 8 10 12 13 8 2 4 8 8 8 8 7 8 8 9 9 10
31 30 28 25 25 23 21 20 18 19 20 24 24 11 4 6 4 4 3 2 3 0 1 3 5 3 1 3 6 9 6 4 3 3 7 8 9 8 1 2 5 3 1 3 3 2 4 4 7 7 7 7 6 6 7 6 6 6 6 5 2 3 2 2 1 4 3 2 3 3 4 9 11 11 12 9 6 7 9 8 9 10 9 8 8 10 10 9
33 30 28 26 25 22 21 19 18 19 21 23 16 2 3 5 5 9 7 2 2 2 3 2 4 3 2 3 5 4 3 4 3 1 4 6 4 5 1 3 7 4 1 2 3 2 2 4 8 6 5 7 7 6 8 7 6 6 4 5 3 3 2 2 1 4 4 1 3 4 4 9 11 10 11 10 8 8 8 8 8 8 9 9 8 9 9 8
34 31 29 27 25 22 20 19 18 19 21 20 11 3 4 7 11 14 7 4 1 2 3 2 3 3 2 2 4 3 4 4 4 2 3 5 3 3 4 5 6 5 2 4 6 6 4 5 6 6 8 10 6 4 8 8 5 4 4 5 3 2 1 2 2 3 3 2 1 2 3 8 8 7 10 9 7 7 7 8 8 8 10 11 8 7 8 9
35 32 29 27 26 22 18 19 18 18 22 20 13 8 8 11 16 14 4 3 2 1 0 1 2 4 3 2 5 5 4 2 4 4 4 6 4 2 5 5 5 5 3 5 7 7 5 4 2 7 7 9 7 3 6 7 3 1 3 6 4 3 4 3 1 1 3 3 3 3 4 6 5 5 8 6 4 5 5 6 8 9 8 8 8 8 9 9
36 32 30 28 25 21 21 20 17 18 19 15 13 11 10 13 15 9 4 3 1 1 1 1 0 3 4 4 4 4 4 2 1 2 3 6 6 3 3 3 4 4 4 5 7 5 4 3 3 8 5 6 8 4 4 6 4 1 3 5 6 7 6 3 2 4 4 4 4 5 3 6 5 5 8 5 7 7 5 6 9 9 6 6 7 9 9 9
36 32 31 28 24 25 22 14 14 19 14 10 15 14 10 12 12 7 4 4 1 1 1 2 1 5 7 3 2 4 4 1 1 1 3 5 3 3 3 1 2 3 5 5 5 2 1 2 4 7 7 6 7 5 5 6 6 2 4 5 7 8 9 7 5 5 2 1 3 4 2 5 6 6 7 5 7 10 8 8 10 7 6 6 7 8 7 8
36 33 32 27 27 29 18 7 16 19 8 10 19 16 10 13 11 4 5 4 3 2 4 1 1 6 9 2 3 6 3 3 1 3 3 3 0 3 4 4 2 2 3 4 2 1 2 3 4 5 6 6 6 4 6 7 8 3 2 5 8 9 9 7 7 5 2 2 3 4 3 2 5 6 7 6 7 10 10 9 10 7 7 7 6 7 8 8
36 34 32 28 30 28 14 11 21 17 6 11 20 16 13 14 9 4 5 2 2 3 4 1 1 6 5 2 4 5 2 2 5 1 2 4 1 3 3 5 5 5 2 4 4 3 2 4 5 6 5 4 4 4 5 8 6 2 2 5 7 8 8 6 6 4 0 1 3 5 2 1 6 7 5 6 4 8 10 10 9 8 7 8 8 9 8 7
36 34 30 30 31 24 11 12 21 17 11 16 20 17 16 14 7 4 4 2 1 2 1 2 3 3 2 3 4 3 2 2 2 2 2 4 2 4 3 5 6 8 3 4 5 2 1 3 6 6 5 4 2 1 2 5 3 3 5 7 7 7 6 5 5 4 2 2 4 5 2 1 5 7 4 3 2 7 9 8 7 7 8 8 8 9 8 7
35 32 31 33 30 21 10 10 20 21 13 16 20 19 17 9 4 4 2 4 3 1 1 2 3 3 6 7 2 3 3 2 1 1 3 2 3 6 3 2 6 7 4 6 4 1 2 1 1 3 3 4 4 4 3 3 5 7 6 7 7 6 6 5 3 4 4 2 6 6 2 0 4 6 4 3 4 6 4 6 6 6 8 8 7 7 7 6
34 31 33 34 27 22 13 6 19 21 14 18 21 18 12 5 3 5 5 3 3 2 1 1 2 5 12 13 5 0 3 2 0 4 3 1 3 4 2 2 4 5 3 4 3 4 4 3 1 0 1 3 6 6 5 4 5 6 4 5 5 4 5 4 5 4 2 4 6 4 2 1 3 6 5 4 6 6 5 5 6 6 8 9 7 7 7 6
33 30 33 32 25 24 13 6 18 21 16 21 20 10 6 4 2 5 3 2 3 3 4 4 4 6 13 13 7 4 4 2 1 5 5 3 3 3 3 4 4 4 1 3 1 3 3 1 2 2 0 3 5 6 4 5 4 5 5 6 5 2 3 2 3 1 3 5 4 2 1 2 5 8 9 11 12 8 7 7 7 6 7 10 8 7 7 6
31 30 32 29 24 24 13 9 20 21 19 23 13 4 5 4 8 6 3 2 2 2 3 4 1 4 10 10 6 4 4 2 3 3 3 4 4 3 1 2 5 5 3 4 4 2 1 4 2 1 1 1 4 5 3 2 0 4 5 5 4 3 2 2 3 2 3 3 3 3 1 2 5 6 9 14 14 8 5 7 7 7 7 10 8 8 8 8
30 30 31 27 24 21 12 13 21 20 20 18 7 4 6 6 7 6 6 5 1 2 2 4 6 6 7 5 5 6 4 1 3 4 2 4 6 5 4 3 3 5 4 3 3 5 4 3 3 2 2 1 2 3 5 6 3 2 3 5 5 5 4 4 4 3 4 3 3 3 2 3 3 2 6 10 10 8 5 6 5 6 8 8 7 7 8 8
30 30 28 25 24 19 11 13 19 20 18 10 5 7 9 9 5 5 7 5 1 2 3 4 7 8 4 2 0 5 3 2 3 4 3 5 6 8 6 6 5 4 6 5 3 2 4 4 4 2 3 1 2 2 3 6 3 1 2 5 3 4 5 3 3 5 3 1 2 2 3 5 4 6 9 5 6 7 6 5 4 6 7 4 4 6 6 7
30 29 25 23 24 19 11 12 17 18 13 6 7 9 9 6 4 3 6 5 4 6 7 4 4 5 4 2 0 4 1 3 4 3 3 4 3 6 6 5 6 5 5 6 3 1 3 2 4 3 2 3 1 2 1 2 3 2 2 3 4 3 7 6 1 1 3 0 3 1 4 5 4 7 9 5 6 8 5 6 6 6 6 3 3 5 6 6
29 24 18 17 21 20 12 10 16 16 7 4 10 10 4 2 3 4 5 6 7 9 10 5 1 4 5 3 4 7 2 3 4 3 4 4 3 6 7 4 5 8 6 4 2 3 5 1 3 3 2 2 1 1 4 4 3 5 3 5 4 3 5 5 2 3 4 2 4 1 4 6 2 3 7 8 8 9 6 6 7 7 7 5 3 5 6 6
25 17 10 13 21 20 12 10 14 11 3 4 10 7 2 2 2 3 4 6 8 7 7 6 3 3 6 6 6 7 5 5 5 4 4 4 4 6 10 6 4 8 7 3 2 2 5 3 3 2 2 3 4 3 3 4 4 4 4 3 4 3 2 2 2 1 0 2 4 4 4 4 4 5 5 5 5 8 7 6 6 7 6 5 5 6 7 6
19 11 4 12 21 18 13 12 11 6 3 7 10 6 2 2 1 1 2 5 7 5 5 5 2 2 4 6 6 6 6 6 8 5 4 4 4 5 8 5 2 6 6 5 4 3 4 4 1 1 1 2 3 1 4 0 4 4 2 2 3 3 4 2 3 4 3 3 3 4 4 3 6 6 5 8 8 6 5 5 5 6 6 6 5 5 6 6
11 5 3 13 21 19 15 11 6 4 5 7 6 4 1 1 1 2 2 2 4 3 4 4 3 4 4 3 3 5 4 5 8 6 3 5 4 4 6 5 5 7 4 4 4 3 2 3 3 1 3 1 1 3 6 6 3 2 3 3 1 2 2 2 0 2 4 4 3 2 4 5 6 4 7 10 9 7 7 5 5 5 5 6 5 4 5 5
5 3 3 14 23 22 16 8 3 5 5 2 2 2 1 1 2 1 3 1 2 1 3 5 5 5 5 4 3 5 4 3 6 5 3 5 6 4 6 8 9 9 6 4 3 4 2 3 5 2 0 3 3 3 4 5 4 5 5 6 6 4 4 3 3 1 2 3 4 3 4 8 6 4 7 7 6 7 6 5 4 6 5 5 4 4 5 4
3 3 4 17 27 23 12 5 2 2 2 2 2 2 1 2 3 1 2 2 2 2 3 4 4 3 4 4 4 6 6 4 5 5 3 6 8 5 5 6 10 12 9 4 3 3 3 4 5 2 3 5 3 3 2 2 1 2 4 5 6 5 5 6 5 3 2 1 2 3 2 8 6 4 6 6 6 7 5 6 5 6 5 4 4 5 4 4
1 3 6 17 27 20 8 3 2 1 1 2 0 2 2 2 2 1 0 2 2 2 2 2 2 2 3 3 4 7 8 5 6 8 5 4 5 4 4 8 11 11 9 4 3 3 2 4 4 0 3 3 3 4 2 2 2 1 4 3 4 4 3 6 6 4 4 3 3 3 3 7 6 3 4 5 6 6 6 6 6 6 5 4 5 4 4 4
1 3 4 11 19 13 5 5 6 4 2 0 2 2 1 1 2 2 1 0 1 2 3 2 2 2 2 4 5 7 9 6 6 8 4 2 3 1 5 10 11 11 8 5 7 6 3 3 5 3 2 3 4 3 3 3 2 3 3 2 4 4 6 5 2 4 2 5 7 5 4 7 5 4 3 4 5 6 7 6 6 5 4 3 4 5 5 6
1 2 3 4 8 6 2 3 4 5 4 3 4 3 1 2 2 1 3 2 1 2 3 1 1 2 3 3 4 4 8 5 3 5 3 2 3 2 3 10 10 8 4 2 6 7 5 4 5 6 6 5 5 5 4 4 3 2 1 4 5 7 9 5 3 4 3 5 7 7 7 5 4 6 6 5 4 5 7 6 4 5 4 4 4 5 5 5
1 1 1 2 2 1 1 1 3 4 5 5 4 3 3 3 1 1 2 2 1 2 3 1 2 3 3 4 5 4 8 4 3 3 5 4 3 2 1 6 7 4 2 6 9 7 3 2 5 8 10 11 11 9 4 7 6 4 5 8 8 8 9 7 5 4 6 3 4 10 10 6 5 5 6 6 5 6 6 5 6 6 6 6 5 5 5 6
1 1 2 3 2 2 1 1 3 3 4 6 4 4 5 4 1 1 2 1 1 2 3 3 1 2 3 6 6 5 7 4 2 3 4 4 2 2 2 2 3 3 2 7 8 5 4 4 8 10 13 12 8 6 4 7 8 10 10 10 10 10 10 9 8 11 6 5 8 14 9 9 10 6 7 9 6 6 7 6 6 5 5 7 6 5 7 8
1 1 1 1 1 3 2 3 4 4 4 6 3 4 7 5 4 3 1 2 2 1 1 2 0 3 5 6 6 4 5 5 3 3 2 2 2 1 4 2 1 2 1 4 4 4 5 7 8 9 13 11 4 5 5 7 7 8 11 13 12 12 13 13 16 16 9 7 16 11 9 13 14 7 9 10 7 7 7 4 4 4 5 8 7 8 9 9
1 1 1 3 1 2 3 5 7 5 4 5 2 3 8 9 7 4 2 3 1 3 1 2 4 4 4 3 5 5 6 6 5 4 3 3 3 3 2 1 0 1 2 4 3 2 4 5 5 8 10 11 5 4 5 7 6 5 9 13 13 14 17 18 19 20 15 15 19 8 6 13 13 8 11 11 8 8 5 2 4 5 7 8 8 9 10 10
1 1 1 2 2 2 4 6 8 6 3 3 3 3 6 10 11 5 2 3 3 2 2 4 5 4 4 3 5 3 5 6 5 7 6 5 4 3 3 4 3 1 2 4 3 1 3 3 2 6 5 8 5 5 4 5 5 4 5 8 11 13 16 18 19 18 14 14 16 9 7 15 8 8 9 11 7 5 3 4 7 8 9 9 9 10 10 10
2 1 1 3 2 3 4 4 5 6 3 3 4 4 5 9 11 8 3 2 3 4 5 6 6 4 3 3 4 2 4 4 5 6 7 7 6 4 2 4 6 6 4 4 3 2 4 2 2 5 3 6 4 7 6 4 5 0 2 7 12 13 14 16 15 12 10 11 14 10 9 15 7 9 9 10 6 6 7 9 9 9 10 10 10 11 11 11
2 1 1 3 2 2 4 4 4 4 3 4 5 4 4 5 6 8 4 2 1 3 5 8 8 5 3 3 5 5 6 6 6 5 5 5 5 4 3 2 5 7 7 6 3 2 5 4 2 4 5 5 2 6 7 7 5 3 7 12 17 15 14 12 7 7 9 11 10 9 12 16 8 7 7 9 6 8 11 10 9 10 10 10 10 11 11 11
Wind_Direction
184 185 186 187 193 194 187 185 188 191 194 195 195 193 192 192 192 193 197 197 198 202 205 206 207 207 208 209 209 212 220 233 240 230 225 238 240 242 252 259 252 227 225 233 208 189 165 107 175 139 124 88 12 328 40 16 62 59 82 105 162 181 203 187 178 189 168 198 207 209 186 161 190 218 189 28 36 59 67 339 324 305 249 228 277 302 157 164
183 185 185 186 190 189 181 184 190 191 194 196 195 193 193 193 192 193 197 199 200 204 206 206 207 205 207 206 205 207 214 232 243 243 235 236 241 243 248 251 244 221 214 216 207 188 156 177 181 109 70 63 356 0 59 4 66 85 109 115 211 198 205 196 174 181 166 173 173 179 191 179 189 173 148 176 324 22 128 276 346 320 263 297 321 152 156 163
183 185 184 185 185 183 180 183 188 190 193 195 195 195 195 194 191 193 197 200 202 207 207 207 208 205 205 201 197 199 205 236 257 252 242 234 233 238 242 239 230 214 205 204 203 195 180 180 158 119 58 65 356 17 77 14 51 143 119 119 234 210 210 212 178 183 204 166 147 162 182 195 219 161 154 174 163 32 201 225 201 260 248 267 334 151 156 164
182 183 183 184 182 179 179 183 187 189 192 194 195 196 197 195 191 193 196 199 204 207 207 209 208 204 202 195 186 186 182 312 270 241 241 233 227 230 234 229 216 203 199 192 183 181 164 147 131 98 72 71 335 11 107 326 201 148 119 169 229 197 173 199 190 196 204 166 142 141 134 172 241 167 148 144 132 271 243 224 199 211 209 179 188 163 161 167
181 182 183 183 180 178 181 186 188 188 191 192 193 194 199 204 197 190 193 197 202 204 205 207 206 203 197 189 182 185 166 22 266 225 225 226 222 221 223 217 200 191 185 173 163 149 136 127 97 65 72 95 354 40 150 297 86 104 118 185 199 158 93 183 211 194 158 133 122 129 150 183 179 120 148 151 166 234 234 225 209 206 183 163 169 169 169 173
180 182 184 180 178 182 185 187 187 187 188 187 189 191 199 208 195 187 192 195 198 199 201 202 202 197 191 187 184 192 187 204 305 212 205 208 205 206 207 200 185 180 174 163 154 138 118 82 85 103 73 81 120 128 196 302 43 122 242 228 186 189 73 4 314 233 148 128 141 157 173 152 123 154 178 174 204 219 219 246 222 191 161 156 158 163 172 180
179 182 183 179 177 182 185 186 186 185 184 184 187 190 196 200 189 191 192 191 195 192 194 197 195 190 185 177 171 192 235 256 325 175 194 188 187 190 189 187 177 175 172 159 145 130 112 89 126 152 91 89 155 153 184 358 39 95 155 331 152 180 72 345 336 217 157 148 174 166 125 128 163 184 109 216 232 223 247 296 229 155 145 150 156 170 182 186
179 180 181 180 178 181 184 185 184 181 181 184 186 189 191 190 188 194 189 187 190 186 188 190 187 183 176 163 147 162 256 261 313 170 184 175 177 177 176 179 172 174 172 167 161 144 134 129 162 157 98 164 162 129 149 83 39 79 151 190 107 93 331 345 43 79 107 132 152 119 109 246 208 162 124 242 247 250 269 7 112 134 139 156 169 182 189 191
179 180 179 180 180 181 182 181 181 179 180 183 184 186 186 185 189 192 186 185 184 181 183 181 182 178 170 156 126 152 228 243 241 177 175 172 174 170 173 177 172 173 165 173 174 154 157 166 186 185 149 182 135 123 159 125 217 161 133 135 98 15 326 3 63 50 65 80 67 117 96 314 247 169 265 249 255 276 82 95 119 136 148 175 181 188 191 194
180 181 180 180 179 180 180 177 179 179 180 182 181 180 179 184 190 188 184 183 180 179 178 177 178 173 167 150 121 181 235 230 197 183 173 171 173 169 174 178 173 171 158 159 168 157 172 187 181 169 140 134 113 116 171 151 180 136 114 103 80 28 327 29 81 18 16 63 49 142 152 308 302 327 262 263 304 321 105 107 141 156 174 191 189 196 197 200
181 182 181 181 179 178 178 177 178 178 179 178 177 177 176 183 189 187 183 179 177 177 175 175 175 173 167 141 138 196 240 201 185 179 176 174 174 175 178 178 171 169 160 146 169 172 184 186 161 129 137 160 120 75 285 151 108 114 122 94 19 9 20 34 75 10 2 84 44 133 145 307 341 285 232 261 325 283 140 137 166 179 198 203 200 206 205 213
183 183 182 181 179 178 177 177 178 177 178 175 178 181 177 182 187 185 180 173 174 177 174 173 174 173 160 113 179 216 233 191 187 179 178 175 172 174 172 173 171 172 170 154 179 180 171 173 145 107 226 152 127 112 155 111 91 114 109 96 350 4 31 12 47 331 355 105 326 104 108 293 237 233 240 264 338 39 146 166 190 201 218 216 215 220 217 224
183 184 183 179 178 177 178 179 177 176 176 174 179 186 182 182 183 181 176 170 171 175 174 171 173 169 150 107 220 225 231 199 191 182 177 175 168 167 165 168 166 172 182 174 175 162 153 169 138 110 133 109 126 179 123 69 71 127 64 96 40 15 360 334 1 323 57 111 323 89 206 275 247 250 257 284 355 79 161 214 221 220 230 231 229 230 233 232
182 184 182 178 176 177 180 180 175 175 176 173 177 184 184 179 178 179 171 167 168 172 173 168 165 159 145 225 223 218 221 208 194 182 174 175 162 152 157 164 163 165 172 171 164 148 152 161 121 101 105 91 135 117 63 26 32 105 65 65 73 112 264 307 341 354 131 126 356 100 189 272 262 266 280 309 324 157 203 239 238 236 237 236 235 234 241 238
182 183 179 175 174 176 179 177 173 173 174 177 181 181 181 178 177 173 164 164 163 165 165 160 161 148 111 263 242 207 210 208 192 182 177 177 161 144 150 155 155 156 150 148 150 139 142 140 102 86 78 24 98 92 48 18 23 43 103 316 357 159 250 313 340 106 151 271 24 95 204 274 266 264 283 325 10 176 219 250 252 253 249 243 242 239 245 249
180 180 177 174 174 174 175 173 169 170 173 176 179 178 177 173 168 161 160 157 151 156 156 155 165 150 108 227 217 177 198 198 184 180 178 177 169 148 138 135 127 128 130 122 127 122 106 99 75 82 114 68 91 101 69 36 5 359 104 180 234 164 244 316 338 349 44 188 10 75 218 272 282 271 285 329 64 138 228 262 267 257 254 248 241 242 246 259
178 178 176 174 174 173 172 170 168 172 176 172 171 173 167 158 155 152 148 139 134 141 145 157 166 148 96 174 165 202 191 179 174 171 169 172 170 151 135 117 100 108 109 106 116 105 55 51 56 348 67 70 106 102 88 41 257 292 48 114 206 177 190 276 269 323 27 101 248 13 244 252 272 281 286 303 53 78 257 266 275 264 258 249 240 247 245 251
177 177 176 175 174 173 172 171 170 173 175 171 165 154 139 131 132 136 135 127 118 110 114 153 152 143 237 202 177 204 166 153 158 156 155 155 156 153 136 111 108 105 91 77 76 60 26 27 68 106 47 58 125 115 142 203 195 184 171 141 192 206 201 237 240 266 26 81 218 311 274 263 277 283 283 273 193 254 263 262 281 277 267 260 250 248 244 245
178 177 176 175 173 172 172 171 169 168 167 163 150 132 117 108 103 116 135 129 118 114 138 180 159 157 210 206 165 122 118 134 142 143 141 140 146 139 113 104 107 99 97 95 71 71 77 55 68 127 140 160 183 170 174 193 174 167 175 147 152 182 226 240 247 269 71 123 238 247 248 270 282 285 288 276 180 226 270 277 279 271 265 262 252 246 245 243
179 178 175 174 173 172 171 169 166 165 162 154 144 131 116 112 101 110 163 168 183 168 169 180 164 138 132 161 124 118 116 117 119 133 139 146 145 121 78 69 75 69 111 147 161 145 97 122 174 183 182 191 192 169 144 154 144 135 130 117 145 172 225 247 258 305 358 144 253 255 259 276 273 276 280 280 290 279 273 273 265 259 256 252 246 246 243 239
180 177 175 174 173 172 169 167 167 166 163 157 153 140 141 160 142 161 178 266 243 209 359 181 142 105 98 125 140 136 117 83 55 95 142 156 148 136 56 29 101 90 198 164 145 89 90 156 209 208 188 176 160 132 109 102 92 99 137 143 160 187 213 240 214 320 347 160 265 351 326 277 266 272 275 278 292 271 251 249 255 254 252 250 249 252 249 250
181 177 174 174 174 172 168 167 168 168 168 167 167 170 202 177 132 146 147 114 250 11 33 138 98 56 42 115 155 150 83 84 82 45 157 148 138 164 175 72 128 156 254 131 113 104 134 213 225 207 154 112 90 90 94 91 92 90 119 139 164 213 231 275 291 345 4 128 267 346 337 279 268 269 268 266 261 254 245 239 247 254 256 254 248 253 264 274
180 177 174 175 175 170 166 167 168 171 174 176 185 206 173 156 136 143 133 91 167 359 51 137 123 97 53 98 179 141 88 127 157 230 197 141 131 176 134 105 134 140 151 168 149 149 181 250 235 175 134 114 94 72 92 86 80 92 110 135 177 236 164 213 273 342 11 79 235 305 301 282 284 284 275 268 261 267 272 262 256 249 248 255 259 263 270 272
178 176 174 174 173 167 165 165 166 177 182 183 198 195 149 142 148 149 112 71 147 292 348 206 151 149 135 144 173 142 107 136 161 184 187 144 137 149 140 137 130 127 175 177 148 155 195 270 187 138 134 133 125 100 113 108 70 79 145 142 162 191 169 189 231 10 7 29 40 15 324 294 306 310 283 291 327 298 291 303 283 258 251 266 281 274 258 257
177 175 173 172 170 164 160 158 167 182 182 189 205 189 144 143 157 153 94 74 137 328 302 236 121 188 167 122 155 157 124 119 173 190 175 147 141 134 141 135 124 161 188 138 126 161 224 281 123 131 131 128 132 161 176 143 118 232 208 174 170 167 154 142 84 67 40 2 1 25 347 289 315 310 269 302 346 310 307 321 286 274 285 283 276 272 260 257
175 173 172 169 164 158 154 157 179 178 173 204 200 174 151 153 158 154 91 62 278 261 168 168 141 182 172 127 147 139 113 163 295 41 120 138 141 113 131 120 62 167 174 133 129 169 219 9 83 130 138 129 136 180 203 149 124 184 224 167 146 130 123 127 114 89 99 245 334 46 136 263 315 304 271 317 335 305 306 300 280 286 301 278 262 271 271 266
173 172 170 166 162 159 156 158 172 166 164 214 191 168 162 161 153 142 79 46 279 180 135 188 341 167 170 170 150 134 155 208 109 60 83 114 55 54 123 175 106 141 169 124 139 228 132 77 67 99 111 123 143 193 203 146 128 190 231 125 124 120 124 132 110 96 179 225 329 17 110 231 297 275 276 333 333 309 309 293 291 308 301 288 282 280 274 262
172 173 169 165 165 166 166 156 161 168 183 180 173 167 162 157 148 109 89 91 251 132 132 229 128 144 148 69 94 110 199 196 121 175 347 68 92 43 105 186 152 137 137 122 174 256 105 143 164 128 108 140 178 217 186 133 117 228 203 120 117 115 120 118 96 91 84 7 308 318 59 195 270 273 302 350 327 295 292 281 289 302 297 305 310 304 296 275
172 173 169 165 167 172 178 166 168 181 184 159 161 167 156 150 142 83 86 177 186 77 108 142 128 134 120 96 79 58 39 44 109 216 349 67 75 45 116 187 135 118 64 93 161 226 58 188 192 139 128 173 179 1 126 112 106 178 150 104 82 77 80 79 87 100 59 31 244 264 4 176 264 285 314 2 266 256 269 275 278 280 283 293 301 307 310 302
173 171 168 164 166 173 171 174 183 183 175 160 160 159 148 140 124 111 177 212 149 88 44 127 165 157 141 135 81 8 73 53 25 79 33 61 30 30 100 155 100 105 41 42 93 248 304 277 233 104 126 167 132 77 55 77 123 141 124 80 64 42 40 51 54 80 67 319 251 254 306 187 265 283 256 204 215 215 236 287 292 296 303 298 294 299 306 313
173 170 168 166 169 173 163 180 191 179 167 164 156 150 141 96 69 152 203 212 123 99 76 146 191 146 152 157 159 168 89 41 321 128 127 141 50 49 114 121 74 78 43 45 43 333 358 27 335 19 110 122 100 69 41 42 91 107 98 93 85 9 13 27 2 40 101 256 259 267 293 183 222 262 252 245 255 224 200 258 278 287 305 307 303 298 300 315
172 170 170 170 172 176 174 198 185 173 169 165 154 146 130 90 201 193 197 176 148 188 176 174 207 176 166 160 148 152 124 82 204 147 144 145 143 159 159 172 155 101 133 182 135 360 24 35 308 331 280 149 110 78 41 356 18 76 102 105 97 15 13 3 324 351 214 244 268 281 251 214 233 250 260 266 269 248 203 220 241 240 273 295 303 304 310 320
172 171 172 174 175 177 183 185 175 173 174 167 153 99 91 141 211 194 165 198 197 191 147 130 141 158 157 149 145 151 111 122 189 158 135 126 150 195 267 180 148 120 174 183 129 110 325 306 311 68 280 212 133 120 127 257 295 124 136 125 126 117 90 251 267 289 260 258 298 295 245 256 270 262 250 251 261 265 220 224 230 217 245 276 293 309 312 310
173 172 174 179 179 178 180 176 176 176 173 169 154 102 126 192 204 150 158 209 260 52 72 100 108 121 144 147 173 169 101 79 174 127 118 128 145 193 226 217 152 101 112 138 148 163 175 259 250 166 232 239 141 161 152 144 135 163 164 127 142 154 145 199 214 207 245 277 314 300 250 203 212 263 242 235 262 290 274 257 250 232 247 270 298 310 300 294
172 173 174 179 184 182 174 175 178 176 173 169 145 155 183 205 196 144 169 190 182 73 55 84 115 130 151 38 169 190 123 137 174 115 142 166 168 189 191 196 193 135 126 154 201 167 157 233 268 282 274 128 132 235 119 108 114 224 138 104 146 182 137 134 179 173 173 331 307 257 238 215 206 282 279 251 274 289 285 291 283 257 262 285 322 307 287 284
168 171 174 179 188 189 176 175 179 179 179 164 157 185 205 199 179 173 166 148 145 132 105 85 93 130 165 55 242 223 91 112 161 143 176 193 191 194 187 192 189 174 162 155 159 159 152 246 314 342 347 50 119 248 58 107 171 156 124 164 204 168 113 111 192 41 75 275 272 230 255 288 324 299 296 317 304 292 297 301 288 275 290 338 346 297 279 275
165 168 172 179 190 192 180 176 179 179 181 173 182 195 196 143 166 163 139 126 141 136 124 135 152 146 165 163 191 203 163 119 158 169 182 190 212 194 190 210 189 184 193 154 151 197 157 139 339 38 68 8 294 151 50 36 110 119 171 204 180 115 92 108 156 10 43 238 275 288 247 287 335 282 314 348 315 286 282 289 293 299 313 330 310 280 277 279
161 159 161 184 193 190 178 172 174 167 150 190 198 200 132 98 164 148 133 133 135 133 136 157 167 144 166 178 184 186 176 162 172 179 173 190 244 201 178 192 191 187 195 157 149 198 129 119 328 41 125 307 342 84 82 12 42 115 178 171 113 131 144 89 139 162 127 235 280 304 281 268 206 225 296 319 273 266 276 290 289 276 278 286 281 283 294 297
153 148 154 194 194 185 168 164 163 147 158 195 199 206 169 109 145 214 171 142 126 121 152 172 161 118 167 176 165 172 186 177 170 176 177 187 241 221 180 179 176 185 185 144 153 183 119 128 236 319 262 300 8 90 180 230 17 42 89 95 74 124 159 155 151 166 179 201 253 309 325 271 225 213 220 232 236 240 255 282 282 258 251 258 264 278 293 293
151 146 146 185 186 176 158 149 141 153 197 204 192 194 179 95 173 282 298 141 126 122 163 178 157 137 158 165 153 169 182 169 169 184 202 182 200 238 208 189 162 166 151 96 127 165 107 127 174 299 333 197 178 220 191 172 145 103 112 155 174 65 109 159 103 117 142 163 189 278 305 267 247 211 197 219 232 223 219 248 288 280 251 247 255 264 280 286
150 138 134 168 173 168 154 140 155 185 194 197 136 152 193 111 142 294 335 29 104 105 139 145 144 145 149 151 167 172 151 146 177 190 214 197 198 224 215 187 159 152 135 96 133 166 142 135 152 140 314 196 217 250 201 180 172 164 172 185 179 148 122 157 248 251 114 143 168 169 265 266 253 209 204 223 242 245 234 230 267 277 252 249 266 249 244 254
134 120 143 164 168 167 157 144 186 162 136 169 161 136 109 87 104 117 338 29 69 65 78 103 119 139 154 157 160 161 152 154 185 192 213 213 208 219 215 171 150 154 153 134 148 167 129 106 116 142 212 210 241 278 207 190 162 164 203 196 171 163 141 154 209 224 120 131 147 116 269 270 259 215 210 232 260 272 252 212 232 266 258 255 269 258 249 248
104 97 128 162 167 166 151 151 199 153 149 226 257 54 44 65 97 121 358 30 76 95 66 79 125 136 162 159 140 161 171 169 190 201 212 215 215 228 195 158 147 154 155 138 152 161 118 109 113 61 301 310 321 336 20 47 57 223 239 191 155 179 146 143 181 171 144 177 142 89 281 270 273 260 225 240 267 283 266 217 219 248 250 249 273 302 320 310
31 80 94 158 167 165 158 181 193 182 173 42 66 78 10 21 86 115 144 109 89 123 111 119 151 134 154 152 138 170 184 180 198 207 199 187 219 227 164 166 162 162 171 180 174 174 187 160 126 105 26 354 350 350 340 311 215 206 223 158 140 134 102 105 142 107 139 208 157 144 245 258 277 317 316 285 300 301 274 237 213 223 234 259 293 310 310 307
57 68 57 140 156 157 173 183 164 152 146 113 116 137 117 57 44 105 137 122 70 130 127 130 146 100 117 142 112 155 189 179 172 194 182 191 240 349 151 184 185 181 190 156 143 159 180 173 148 150 168 189 200 204 222 218 191 197 165 144 162 151 139 156 134 103 227 224 154 177 235 250 289 320 316 296 304 292 273 269 258 244 252 270 281 289 288 284
105 87 95 105 103 99 57 58 108 132 154 147 136 162 154 124 358 342 86 115 159 119 90 85 143 94 89 144 128 160 202 194 85 156 181 189 225 320 234 191 197 204 146 112 133 144 135 174 189 188 195 202 203 204 173 125 142 192 176 162 178 177 165 152 111 160 208 161 170 224 233 239 255 268 269 263 260 258 258 259 248 240 250 258 250 253 262 261
101 144 149 128 116 127 91 67 129 122 157 168 163 175 163 132 102 17 30 62 162 111 64 49 112 137 150 160 152 176 202 192 111 161 172 174 210 307 352 146 192 240 118 134 156 130 100 203 209 201 217 220 199 193 168 134 166 192 176 168 179 178 168 159 184 213 179 115 240 237 213 230 240 214 228 246 243 251 254 248 250 265 282 283 281 287 291 293
83 123 175 14 128 157 152 172 157 108 131 166 157 153 159 150 153 169 79 32 26 26 112 70 334 189 173 167 161 163 173 180 205 197 142 137 160 49 22 53 192 259 101 142 186 120 130 210 209 192 223 233 176 150 176 166 175 182 173 177 179 172 174 183 210 220 172 172 242 231 165 220 236 189 209 234 218 228 245 259 300 316 292 284 296 301 297 296
86 102 8 355 18 144 125 130 141 127 134 158 151 156 169 174 179 174 95 86 2 321 163 182 221 195 168 159 150 156 171 179 202 208 165 149 151 115 84 108 178 320 94 137 193 155 158 215 194 173 220 240 202 159 181 174 168 170 179 184 178 176 186 195 212 221 204 213 241 230 166 237 241 180 206 233 223 231 259 330 312 283 264 268 277 277 277 279
100 125 110 63 55 103 110 120 142 151 155 168 184 185 177 184 187 179 122 148 185 232 188 194 200 162 142 138 122 158 203 177 174 196 175 152 167 174 179 185 169 67 96 154 183 209 200 226 149 137 208 251 214 176 189 173 163 179 186 186 185 186 197 207 216 221 214 226 248 256 260 266 251 152 203 237 221 220 265 269 258 253 250 254 256 261 268 275
96 157 127 114 102 129 136 131 140 150 161 189 192 177 180 197 191 175 177 207 178 181 179 173 163 122 99 122 110 153 206 145 128 173 170 156 174 190 197 188 158 144 163 178 158 150 184 217 52 105 179 256 225 180 175 104 82 312 232 192 195 197 205 213 217 215 202 214 240 251 257 262 236 149 205 238 195 187 233 238 240 245 242 243 249 256 261 264
77 7 50 105 100 148 151 137 144 160 172 186 186 167 167 192 172 156 177 255 176 184 176 160 157 128 106 182 191 183 179 139 111 127 136 123 118 101 84 119 136 145 164 168 153 157 162 158 110 139 184 265 289 148 139 94 76 271 244 208 200 203 211 219 226 228 209 201 218 225 233 249 238 149 206 239 195 202 232 230 229 241 241 239 244 250 254 258